Regional Weather Roundup
Issued by NWS Wakefield, VA

Home | Current Version | Previous Version | Text Only | Print | Product List | Glossary On
Versions: 1 2 3 4 5 6 7 8 9 10 11 12 13 14 15 16 17 18 19 20 21 22 23 24 25 26 27 28 29 30 31 32 33 34 35 36 37 38 39 40 41 42 43 44 45 46 47 48 49 50
000
ASUS41 KAKQ 011510
RWRAKQ

REGIONAL WEATHER ROUNDUP
NATIONAL WEATHER SERVICE WAKEFIELD VA
1000 AM EST SUN MAR 01 2015

Note: "fair" indicates few or no clouds below 12,000 feet with no
significant weather and/or obstructions to visibility. * = Denotes
station may not report precipitation (e.g., rain,snow,etc.),
thunder or fog.

VAZ042-051-052>054-056-011600-
NORTHERN VIRGINIA

CITY           SKY/WX    TMP DP  RH WIND       PRES   REMARKS
WASH NATIONAL  FRZ RAIN  29  20  69 S8        30.65F
DULLES         LGTSLEET  25  18  74 S8        30.60F
FORT BELVOIR   FRZ RAIN  27  23  84 S5        30.64F
QUANTICO       FRZ RAIN  27  22  81 S8        30.66F
FREDERICKSBRG* MIX PCPN  28  26  90 SE3       30.63F
STAFFORD*      MIX PCPN  26  26  98 CALM      30.67F
WARRENTON      MIX PCPN  29  28  95 S6        30.60F
CULPEPER*      MIX PCPN  28  25  86 S5        30.61F
MANASSAS*      CLOUDY    27  25  93 S7        30.63F
LEESBURG*      LGT SNOW  25  25 100 S8        30.61F
WINCHESTER     LGT SNOW  28  19  69 S7        30.53F
FRONT ROYAL*   CLOUDY    27  21  80 CALM      30.53S
LURAY*         CLOUDY    32  23  69 SW3       30.51F
$$

VAZ048-049-060>072-079>083-011600-
CENTRAL AND SOUTH CENTRAL VIRGINIA

CITY           SKY/WX    TMP DP  RH WIND       PRES   REMARKS
RICHMOND       FRZ DRZL  29  20  69 CALM      30.62F
CHESTERFIELD*  CLOUDY    28  12  50 CALM      30.62F
PETERSBURG*    MIX PCPN  30  26  84 NE3       30.61F
HANOVER        FRZ RAIN  27  22  81 CALM      30.63F
TAPPAHANNOCK*  MIX PCPN  29  22  75 CALM      30.64S
QUINTON*       CLOUDY    27  22  81 CALM      30.62F
CHARLOTTSVILLE CLOUDY    27  17  66 CALM      30.58F
GORDONSVILLE*  CLOUDY    26  18  72 CALM      30.59F
ORANGE*        MIX PCPN  28  23  80 CALM      30.61F
LOUISA*        MIX PCPN  27  21  80 CALM      30.60S
BUMPASS*       CLOUDY    27  23  86 SE3       30.61F
FARMVILLE*     CLOUDY    31  21  66 S3        30.60F
CREWE*         CLOUDY    28  25  87 CALM      30.59F
FORT PICKETT*  CLOUDY    28  26  91 CALM      30.58F
CHASE CITY*    CLOUDY    30  30 100 CALM      30.58F
CLARKSVILLE*   CLOUDY    30  28  93 CALM      30.58F
SOUTH HILL*    CLOUDY    28  27  94 N5        30.65F
LAWRENCEVILLE* CLOUDY    28  27  93 CALM      30.59F
EMPORIA*       LGT SNOW  28  27  93 N3        30.62F
$$

VAZ088>098-011600-
SOUTHEAST VIRGINIA

CITY           SKY/WX    TMP DP  RH WIND       PRES   REMARKS
NORFOLK        CLOUDY    32  25  75 N9        30.59F
VIRGINIA BEACH CLOUDY    37  29  72 N7        30.59F
NORFOLK NAVAL  CLOUDY    34  26  72 N12       30.61F
WEST POINT*    CLOUDY    31  24  74 CALM      30.65S
SALUDA*        CLOUDY    29  23  80 CALM      30.62F
NEWPORT NEWS   MIX PCPN  32  25  75 NE5       30.61F
LANGLEY AFB    CLOUDY    30  26  82 N7        30.60F
FORT EUSTIS    FRZ RAIN  30  28  93 NE2       30.60F
WILLIAMSBURG*  CLOUDY    32  28  86 CALM      30.62F
HR EXEC AP*    CLOUDY    32  27  80 N3        30.63S
FRANKLIN*      MIX PCPN  29  28  92 CALM      30.62F
WAKEFIELD      FRZ RAIN  30  25  81 CALM      30.62F
$$

VAZ020-022-025-037-045-011600-
WEST CENTRAL AND SOUTHWEST VIRGINIA

CITY           SKY/WX    TMP DP  RH WIND       PRES   REMARKS
STAUNTON*      CLOUDY    30  19  64 SW7       30.52F
WAYNESBORO*    CLOUDY    28  18  67 CALM      30.49F
HOT SPRINGS VA CLOUDY    37  37 100 SW10G20   30.35F
LYNCHBURG      CLOUDY    28  16  60 CALM      30.57F
DANVILLE       CLOUDY    30  26  85 NE3       30.58F
SOUTH BOSTON*  CLOUDY    29  26  90 CALM      30.60F
MARTINSVILLE   CLOUDY    31  25  80 CALM      30.58F
ROANOKE        CLOUDY    29  14  53 E3        30.56F
BLACKSBURG     CLOUDY    31  17  56 CALM      30.50F
DUBLIN*        CLOUDY    32  19  58 CALM      30.48F
MARION*        CLOUDY    34  22  63 E3        30.47F
HILLSVILLE*    CLOUDY    36  32  87 S3        30.45S
RICHLANDS*     CLOUDY    44  30  57 S3        30.40S
WISE*          CLOUDY    45  30  57 SW5       30.40S
ABINGDON*      CLOUDY    43  29  58 E7        30.44S
$$

MDZ021>025-VAZ099-100-011600-
SOUTHERN MARYLAND AND THE DELMARVA PENINSULA

CITY           SKY/WX    TMP DP  RH WIND       PRES   REMARKS
PATUXENT RIVER FRZ RAIN  27  20  75 E7        30.64F FOG
BAY BRIDGE APT LGT SNOW  27  21  80 SE8       30.65F
LEONARDTOWN    CLOUDY    28  23  80 CALM      30.65F
DOVER          LGT SNOW  25  21  86 S9        30.66F
GEORGETOWN     LGT SNOW  26  21  81 CALM      30.66F VSB 1
EASTON         LGT SNOW  27  23  86 SE5       30.68F
CAMBRIDGE      CLOUDY    28  21  74 E5        30.64F
SALISBURY      LGT SNOW  29  22  75 NE6       30.64F
OCEAN CITY     LGT SNOW  28  23  80 N3        30.66F
WALLOPS ISLAND MIX PCPN  28  24  85 NE6       30.64F
ACCOMACK*      CLOUDY    30  25  80 NE7       30.61F
$$

NCZ012>017-030>032-011600-
NORTH CENTRAL AND EASTERN NORTH CAROLINA

CITY           SKY/WX    TMP DP  RH WIND       PRES   REMARKS
ROANOKE RAPIDS MIX PCPN  30  30 100 NE6       30.60F
RALEIGH        LGT RAIN  32  29  88 CALM      30.59R VSB 1
ELIZABETH CITY LGT RAIN  37  33  85 N6        30.58F
AHOSKIE*       LGT SNOW  30  28  93 CALM      30.63R
EDENTON*       DRIZZLE   35  32  90 N5        30.58F
CURRITUCK*     DRIZZLE   37  32  84 N7        30.58F
KILL DEVIL HLS RAIN      43  41  91 CALM      30.55S
MANTEO         DRIZZLE   46  43  87 CALM      30.57R
CAPE HATTERAS  PTSUNNY   50  44  80 SE13G20   30.55S
TARBORO*       MIX PCPN  31  29  92 N6        30.62S
GOLDSBORO      CLOUDY    33  33  99 N8        30.56F
WASHINGTON     LGT RAIN  35  32  89 N6        30.58R
GREENVILLE     LGT RAIN  32  32 100 N6        30.58F
NEW BERN       PTSUNNY   39  34  82 NE6       30.56F
WILMINGTON     CLOUDY    48  39  71 NE5       30.51F
$$

VAZ048-011600-
ELSEWHERE

CITY           SKY/WX    TMP DP  RH WIND       PRES   REMARKS
HARRISBURG PA  LGT SNOW  24  19  81 SE6       30.57F
BALTIMORE      LGT SNOW  24  20  84 CALM      30.63F VSB 1
ANNAPOLIS      MIX PCPN  26  21  81 S8        30.65F
ANDREWS AFB    FRZ RAIN  27  23  86 S8        30.63F
PHILADELPHIA   CLOUDY    27  10  49 S13       30.64F WCI  16
HENDERSON NC   MIX PCPN  31  29  94 CALM      30.59S
GREENSBORO     FRZ RAIN  30  27  88 N6        30.54F
ROCKY MOUNT    MIX PCPN  31  29  92 NE7       30.58F FOG
$$

VAZ100-011600-
MARINE

STATION/POSITION TIME  TEMP    WIND        PRES    WAVE   SWELL
                       AIR SEA DIR/SP/G            HT/PER HT/PER
                 (UTC) (F)     (DEG/KT/KT) (MB)    (FT/S) (FT/S)
BRANDYWINE LGT   1500   26 29  170/  5/  5 1038.7F
CAPE MAY NJ      1500   27 32  160/  3/  4 1038.4R
LEWES DE         1500   29 30  100/  2/  3 1038.3F
15NM E FENWICK I 1500   33 34              1038.2F   2/ 9
OCEAN-CITY-INLET 1500   29 32   10/  4/  5 1038.1F
WACHAPREAGUE VA  1500   30 32  360/  5/  9 1037.0F
THOMAS POINT MD  1500   25 31  170/  9/ 10 1039.0F
COVE POINT MD    1500   25     140/  7/  8 1037.9S
SOLOMONS ISLAND  1500      32                N/A
BISHOPS HEAD MD  1500   27 31   80/  8/ 11 1037.0F
CAMBRIDGE MD     1500   24 32  100/  5/  7 1037.8F
LEWISETTA VA     1500   28 32              1037.3S
RAPPAHANNOCK LGT 1500           30/ 15/ 17 1037.3F
STINGRAY PT      1500   29 32   50/ 10/ 12   N/A     1/ 2
YORK RVR RNG VA  1500   29      40/ 11/ 13 1035.8F
YORKTOWN VA      1500   29 33   20/  8/ 10 1036.4F
DOMINION TERM VA 1500   31      40/  5/  9 1036.3S
KIPTOPEKE VA     1500      37   30/  6/  8   N/A
CHES BAY BRIDGE  1500   31 33  360/ 13/ 15 1035.8F
CAPE HENRY VA    1500   32     350/  9/ 10 1034.7F
CHESAPEAKE LGHT  1400   36      40/ 17/ 18 1036.1F
WILLOUBY STN VA  1500   31      20/ 11/ 12 1036.6F
S CRANEY ISL VA  1500           30/  8/ 10 1036.2F
CAPE HENRY BUOY  1500      35                N/A     3/10
1ST LANDING BUOY 1500   32 32  350/ 12/ 14 1035.6F   2/ 3
OFFSHORE WE BUOY 1500      37                N/A     3/ 8   2/ 8
64NM E OF VA BCH 1500   57 62  160/ 16/ 19 1034.7R   4/ 4   2/10
DUCK PIER NC     1500   35 34  350/ 10/ 10 1033.9F
44100 DUCK FRF   1400      36                N/A     4/ 8   2/11
44056 DUCK FRF   1500      34                N/A     3/11   2/11
OREGON INLET NC  1500   46 38  130/  6/  9 1034.8R
HATTERAS NC      1500   48 39  140/  8/ 11 1034.7S
CAPE LOOKOUT NC  1400   43      40/ 12/ 13 1033.8F
$$



USA.gov is the U.S. government's official web portal to all federal, state and local government web resources and services.